Location: Brno
(49.2000°N, 16.6330°E)
Time: 22:37:41
(UTC+02:00)

Vanguard 3 - Pass Details

Date: 02 August 2021
Orbit: 510 x 3260 km, 33.3° (Epoch: 22 September)

Event Time Altitude Azimuth Distance (km) Brightness Sun altitude
Rises 00:30:04 0° 275° (W) 7,075 12.1 -22.7°
Reaches altitude 10° 00:35:58 10° 265° (W) 6,179 11.6 -22.8°
Maximum altitude 00:50:05 26° 219° (SW) 4,801 10.6 -23.0°
Enters shadow 00:53:41 24° 204° (SSW) 4,759 10.5 -23.0°
